DELTA 1 R/B

Last updated on Tue Oct 14 2025 00:02:14 GMT+0000 (Coordinated Universal Time)

1 20323U 89089B 25286.55639500 .00000436 00000+0 11704-3 0 9998 2 20323 97.0831 152.3125 0067985 226.7661 132.7849 14.50499093874405
UTC large
Height (km)
Speed (km/s)
/
Latitude / Longitude
Inclination (degrees)
Orbital Period (minutes)
Azimuth
Elevation
Range (km)
Doppler Factor

Next 0 passes for location: London (51.5072 / 0.1276)

Sorry there are no passes over London.